Lexington Weather

Lexington, Massachusetts, USA

38°F
3/2/2024 8:14am 
  • Lexington Conditions: Mostly cloudy
  • Temperature: 38.1°F / 3.4°CWarmer 1.1°F than last hour.
  • Dew Point: 32.5°FIncreased 1.0°Fsince last hour.
  • Relative Humidity: 80
  • Wind: Calm, 10-min avg: Calm, gust: None
  • Barometer: 30.46 in Steady
  • Visibility: 10 miles
  • Rain Today: 0.00 in
  •   

Regional Weather Roundup
for Boston, MA

        
000
ASUS41 KBOX 270710
RWRBOX

REGIONAL WEATHER ROUNDUP
NATIONAL WEATHER SERVICE BOSTON/NORTON MA
200 AM EST TUE FEB 27 2024

NOTE:  "FAIR" INDICATES FEW OR NO CLOUDS BELOW 12,000 FEET WITH NO 
SIGNIFICANT WEATHER AND/OR OBSTRUCTIONS TO VISIBILITY.

MAZALL-270800-
EASTERN MASSACHUSETTS
  
CITY           SKY/WX    TMP DP  RH WIND       PRES   REMARKS
BOSTON         PTCLDY    36  34  92 CALM      30.10R                  
BEVERLY        CLEAR     30  26  85 SW3       30.08S                  
LAWRENCE       CLEAR     34  29  82 CALM      30.10S                  
BEDFORD        CLEAR     28  26  92 CALM      30.08S                  
NORWOOD        CLEAR     32  29  88 CALM      30.09S                  
MARSHFIELD     CLOUDY    36  34  93 SW6       30.10R WCI  31          
PLYMOUTH       FOG       36  36 100 SW3       30.09S VSB 1/4          
TAUNTON        FOG       32  28  85 CALM      30.09F VSB 1            
NEW BEDFORD    FOG       39  38  96 SE5       30.10R VSB 1/2          
$$

MAZALL-270800-
CAPE COD AND THE ISLANDS
  
CITY           SKY/WX    TMP DP  RH WIND       PRES   REMARKS
FALMOUTH       FOG       39  39 100 SW9       30.10S VSB 1/2          
HYANNIS        FOG       38  38 100 SW6       30.10S VSB 3/4          
CHATHAM        MOCLDY    39  38  96 SW5       30.12S FOG              
PROVINCETOWN   FOG       38  38 100 S7        30.12R VSB 1/2          
NANTUCKET      PTCLDY    36  35  96 S9        30.12S FOG     WCI  29  
MARTHAS VNYRD  CLOUDY    33  32  96 CALM      30.11S FOG              
$$
 
MAZALL-270800-
CENTRAL AND WESTERN MASSACHUSETTS
  
CITY           SKY/WX    TMP DP  RH WIND       PRES   REMARKS
WORCESTER      CLEAR     39  32  76 W3        30.04S                  
FITCHBURG      MIX PCPN  27  24  89 NW5       30.09R WCI  22          
ORANGE         CLEAR     26  23  88 CALM      30.07S                  
SPRINGFIELD    CLEAR     28  27  94 CALM      30.05R                  
WESTFIELD      CLEAR     28  25  88 CALM      30.06S                  
NORTH ADAMS    CLEAR     33  26  75 SE10      30.04S WCI  25          
PITTSFIELD     CLEAR     27  23  85 CALM      30.01S                  
$$
 
RIZALL-270800-
RHODE ISLAND
  
CITY           SKY/WX    TMP DP  RH WIND       PRES   REMARKS
PROVIDENCE     FOG       33  32  96 CALM      30.10S VSB 1/4          
NEWPORT        FOG       38  38 100 S6        30.09S VSB 1/4          
BLOCK ISLAND   FOG       39  38  96 SW5       30.11R VSB 1/4          
SMITHFIELD       N/A    N/A N/A N/A MISG        N/A                   
WESTERLY       FOG       33  31  92 CALM      30.09S VSB 1/4          
$$
 
CTZALL-270800-
CONNECTICUT
  
CITY           SKY/WX    TMP DP  RH WIND       PRES   REMARKS
BRADLEY INTL   PTCLDY    30  27  88 CALM      30.06S                  
HARTFORD       CLEAR     32  30  92 CALM      30.07S                  
PLAINVILLE     FAIR      30  30 100 CALM      30.06F                  
BRIDGEPORT     CLEAR     36  33  89 N6        30.06F WCI  31          
DANBURY        CLEAR     31  26  82 CALM      30.06F                  
GROTON         FOG       36  36 100 CALM      30.09S VSB 1/4          
NEW HAVEN      CLEAR     31  29  92 N5        30.06F FOG     WCI  26  
CHESTER        PTCLDY    34  34 100 CALM      30.07S FOG              
MERIDEN        CLEAR     29  26  89 CALM      30.07F FOG              
WILLIMANTIC    CLEAR     29  27  92 CALM      30.09S                  
OXFORD         CLEAR     33  31  92 E3        30.05F                  
$$

MEZ002-015-021-024-NHZ003-005-008-011-012-014-VTZ005-008-270800-
NORTHERN NEW ENGLAND
  
CITY           SKY/WX    TMP DP  RH WIND       PRES   REMARKS
PORTLAND ME    CLEAR     25  23  92 NW3       30.11S                  
BANGOR ME      CLEAR     23  19  85 CALM      30.10S                  
CONCORD NH     CLEAR     26  23  88 CALM      30.09R                  
MANCHESTER NH  PTCLDY    31  25  78 NW3       30.08R                  
NASHUA NH      CLEAR     28  28 100 NW5       30.10R WCI  23          
PORTSMOUTH NH  PTCLDY    33  29  83 CALM      30.09R                  
JAFFREY NH     CLEAR     28  25  88 CALM      30.05S                  
KEENE NH       CLEAR     24  22  91 CALM      30.07S                  
BURLINGTON VT  CLEAR     30  21  69 S5        29.99F WCI  25          
MT. WASHINGTON MOCLDY    23  18  80 W49         N/A  WCI   2          
$$

NYZ052-076-270800-
EASTERN NEW YORK
  
CITY           SKY/WX    TMP DP  RH WIND       PRES   REMARKS
ALBANY         CLEAR     30  24  78 CALM      30.02F                  
NEW YORK CITY  PTCLDY    39  34  82 NE5       30.04F                  
$$
 
ANZALL-270800-
MARINE OBSERVATIONS
  
STATION/POSITION TIME  TEMP    WIND        PRES    VSBY  WAVE
                       AIR SEA DIR/SP/G                  HT/PER
                 (UTC) (F)     (DEG/KT/KT) (MB)    (MI)  (FT/S)
BOSTON BUOY      0650   39 39  170/  4/  6 1018.8R         1/ 9
BUZZARDS BAY     0600   40     220/  7/  7 1019.9S
NANTUCKET SOUND  0650   39 37  190/  4/  6 1019.1F         1/ 8
MASS BAY-STELLWA 0504   42 39  240/  6/  6 1018.8R  1 7/8  2/11
ISLE OF SHOALS   0600   42      80/ 14/ 15 1018.2R
S OF BLOCK IS    0626      41                N/A           4/ 9
$$

......................KEY.........................
  SKY/WX - SKY CONDITION/PRESENT WEATHER
  TMP    - TEMPERATURE IN FAHRENHEIT
  DWPT   - DEWPOINT IN FAHRENHEIT
  RH     - RELATIVE HUMIDITY IN PERCENT
  WIND   - DIRECTION AND SPEED IN MPH
  PRES   - MEAN SEA LEVEL PRESSURE IN INCHES OF HG
  WCI    - WIND CHILL INDEX
  VSB    - VISIBILITY IN MILES
  HX     - HEAT INDEX
  TC     - TEMPERATURE IN CELSIUS
  VRB    - VARIABLE WIND DIRECTION
  N/A    - NOT AVAILABLE
  
      

Other recent Regional Weather Roundups

Sat Mar 2, 8:10am EST

Sat Mar 2, 7:10am EST

Sat Mar 2, 6:10am EST

Sat Mar 2, 5:10am EST

Sat Mar 2, 4:10am EST

Sat Mar 2, 3:10am EST

Sat Mar 2, 2:10am EST

Sat Mar 2, 1:10am EST

Sat Mar 2, 12:10am EST

Fri Mar 1, 11:10pm EST

Fri Mar 1, 10:10pm EST

Fri Mar 1, 9:10pm EST

Fri Mar 1, 8:10pm EST

Fri Mar 1, 7:10pm EST

Fri Mar 1, 6:10pm EST

Fri Mar 1, 5:10pm EST

Fri Mar 1, 4:10pm EST

Fri Mar 1, 3:10pm EST

Fri Mar 1, 2:10pm EST

Fri Mar 1, 1:10pm EST

Fri Mar 1, 12:10pm EST

Fri Mar 1, 11:10am EST

Fri Mar 1, 10:10am EST

Fri Mar 1, 9:10am EST

Fri Mar 1, 8:10am EST

Fri Mar 1, 7:10am EST

Fri Mar 1, 6:10am EST

Fri Mar 1, 5:10am EST

Fri Mar 1, 4:10am EST

Fri Mar 1, 3:10am EST

Fri Mar 1, 2:10am EST

Fri Mar 1, 1:10am EST

Fri Mar 1, 12:10am EST

Thu Feb 29, 11:10pm EST

Thu Feb 29, 10:10pm EST

Thu Feb 29, 9:10pm EST

Thu Feb 29, 8:10pm EST

Thu Feb 29, 7:10pm EST

Thu Feb 29, 6:10pm EST

Thu Feb 29, 5:10pm EST

Thu Feb 29, 4:10pm EST

Thu Feb 29, 3:10pm EST

Thu Feb 29, 2:10pm EST

Thu Feb 29, 1:10pm EST

Thu Feb 29, 12:10pm EST

Thu Feb 29, 11:10am EST

Thu Feb 29, 10:10am EST

Thu Feb 29, 9:10am EST

Thu Feb 29, 8:10am EST

Thu Feb 29, 7:10am EST

Thu Feb 29, 6:10am EST

Thu Feb 29, 5:10am EST

Thu Feb 29, 4:10am EST

Thu Feb 29, 3:10am EST

Thu Feb 29, 2:10am EST

Thu Feb 29, 1:10am EST

Thu Feb 29, 12:10am EST

Wed Feb 28, 11:10pm EST

Wed Feb 28, 10:10pm EST

Wed Feb 28, 9:10pm EST

Wed Feb 28, 8:10pm EST

Wed Feb 28, 7:10pm EST

Wed Feb 28, 6:10pm EST

Wed Feb 28, 5:10pm EST

Wed Feb 28, 4:10pm EST

Wed Feb 28, 3:10pm EST

Wed Feb 28, 2:10pm EST

Wed Feb 28, 1:10pm EST

Wed Feb 28, 12:10pm EST

Wed Feb 28, 11:10am EST

Wed Feb 28, 10:10am EST

Wed Feb 28, 9:10am EST

Wed Feb 28, 8:10am EST

Wed Feb 28, 7:10am EST

Wed Feb 28, 6:10am EST

Wed Feb 28, 5:10am EST

Wed Feb 28, 4:10am EST

Wed Feb 28, 3:10am EST

Wed Feb 28, 2:10am EST

Wed Feb 28, 1:10am EST

Wed Feb 28, 12:10am EST

Tue Feb 27, 11:10pm EST

Tue Feb 27, 10:10pm EST

Tue Feb 27, 9:10pm EST

Tue Feb 27, 8:10pm EST

Tue Feb 27, 7:10pm EST

Tue Feb 27, 6:10pm EST

Tue Feb 27, 5:10pm EST

Tue Feb 27, 4:10pm EST

Tue Feb 27, 3:10pm EST

Tue Feb 27, 2:10pm EST

Tue Feb 27, 1:10pm EST

Tue Feb 27, 12:10pm EST

Tue Feb 27, 11:10am EST

Tue Feb 27, 10:10am EST

Tue Feb 27, 9:10am EST

Tue Feb 27, 8:10am EST

Tue Feb 27, 7:10am EST

Tue Feb 27, 6:10am EST

Tue Feb 27, 5:10am EST

Tue Feb 27, 4:10am EST

Tue Feb 27, 3:10am EST

Tue Feb 27, 1:10am EST

Tue Feb 27, 12:10am EST

Mon Feb 26, 11:10pm EST

Mon Feb 26, 10:10pm EST

Mon Feb 26, 9:10pm EST

Mon Feb 26, 8:10pm EST

Mon Feb 26, 7:10pm EST

Mon Feb 26, 6:10pm EST

Mon Feb 26, 5:10pm EST

Mon Feb 26, 4:10pm EST

Mon Feb 26, 3:10pm EST

Mon Feb 26, 2:10pm EST

Mon Feb 26, 1:10pm EST

Mon Feb 26, 12:10pm EST

Mon Feb 26, 11:10am EST

Mon Feb 26, 10:10am EST

Mon Feb 26, 9:10am EST

Mon Feb 26, 8:10am EST

Mon Feb 26, 7:10am EST

Mon Feb 26, 6:10am EST

Mon Feb 26, 5:10am EST

Mon Feb 26, 4:10am EST

Mon Feb 26, 3:10am EST

Mon Feb 26, 2:10am EST

Mon Feb 26, 1:10am EST

Mon Feb 26, 12:10am EST

Sun Feb 25, 11:10pm EST

Sun Feb 25, 10:10pm EST

Sun Feb 25, 9:10pm EST

Sun Feb 25, 8:10pm EST

Sun Feb 25, 7:10pm EST

Sun Feb 25, 6:10pm EST

Sun Feb 25, 5:10pm EST

Sun Feb 25, 4:10pm EST

Sun Feb 25, 3:10pm EST

Sun Feb 25, 2:10pm EST

Sun Feb 25, 1:10pm EST

Sun Feb 25, 12:10pm EST

Sun Feb 25, 11:10am EST

Sun Feb 25, 10:10am EST

Sun Feb 25, 9:10am EST

Sun Feb 25, 8:10am EST

Sun Feb 25, 7:10am EST

Sun Feb 25, 6:10am EST

Sun Feb 25, 5:10am EST

Sun Feb 25, 4:10am EST

Sun Feb 25, 3:10am EST

Sun Feb 25, 2:10am EST

Sun Feb 25, 1:10am EST

Sun Feb 25, 12:10am EST

Sat Feb 24, 11:10pm EST

Sat Feb 24, 10:10pm EST

Sat Feb 24, 9:10pm EST

Sat Feb 24, 8:10pm EST

Sat Feb 24, 7:10pm EST

Sat Feb 24, 6:10pm EST

Sat Feb 24, 5:10pm EST

Sat Feb 24, 4:10pm EST

Sat Feb 24, 3:10pm EST

Sat Feb 24, 2:10pm EST

Sat Feb 24, 1:10pm EST

Sat Feb 24, 12:10pm EST

Sat Feb 24, 11:10am EST

Sat Feb 24, 10:10am EST

Sat Feb 24, 9:10am EST